Location: Buch
(50.1863°N, 11.0141°E)
Time: 21:43:08
(UTC+00:00)

Cosmos 2154 Rocket - Pass Details

Date: 18 January 2020
Orbit: 965 x 997 km, 82.9° (Epoch: 25 February)

Event Time Altitude Azimuth Distance (km) Brightness Sun altitude
Rises 05:18:19 0° 345° (NNW) 3,675 6.8 -16.9°
Reaches altitude 10° 05:20:58 10° 338° (NNW) 2,721 6.0 -16.5°
Maximum altitude 05:26:41 40° 272° (W) 1,387 4.3 -15.6°
Drops below altitude 10° 05:32:22 10° 205° (SSW) 2,699 6.2 -14.7°
Sets 05:34:59 0° 198° (SSW) 3,642 7.0 -14.3°
